Weather Roundup
Issued by NWS

Home | Current Version | Previous Version | Text Only | Print | Product List | Glossary On
Versions: 1 2 3 4 5 6 7 8 9 10 11 12 13 14 15 16 17 18 19 20 21 22 23 24 25 26 27 28 29 30 31 32 33 34 35 36 37 38 39 40 41 42 43 44 45 46 47 48 49 50
000
NZUS93 KARX 300559
HRRWXR

CURRENT HOURLY OBSERVATIONS ACROSS
MUCH OF THE UPPER MISSISSIPPI VALLEY
NATIONAL WEATHER SERVICE LA CROSSE WI
100 AM CDT SAT AUG 30 2014


...SOUTHEAST MINNESOTA...


CITY           SKY/WX    TMP DP  RH WIND       PRES   REMARKS
ROCHESTER      LGT RAIN  65  63  93 S5        29.79F
ROCHESTER/MAYO CLOUDY    65  64  96 E6        29.78F
WINONA         HVY RAIN  70  68  94 CALM      29.76S
AUSTIN         CLOUDY    64  64 100 CALM      29.78S FOG
ALBERT LEA     LGT RAIN  66  66 100 CALM      29.79R
DODGE CENTER   CLOUDY    66  66 100 S3        29.78R
PRESTON        LGT RAIN  65  65 100 CALM      29.78F
OWATONNA       LGT RAIN  70  66  88 NW6       29.77S
FARIBAULT      LGT RAIN  70  64  83 N3        29.77S
$$

...ELSEWHERE IN MINNESOTA...


CITY           SKY/WX    TMP DP  RH WIND       PRES   REMARKS
MINNEAPOLIS    LGT RAIN  68  67  96 E3        29.77S FOG
INTNL FALLS    CLOUDY    59  55  87 N10       29.84S
DULUTH         CLOUDY    64  61  90 NE3       29.80S
RED WING       LGT RAIN  66  66 100 CALM      29.75R
REDWOOD FALLS  FAIR      67  66  97 NW7       29.80R
MANKATO        FAIR      68  63  83 NW7       29.77S
WORTHINGTON    MOCLDY    64  63  94 W3        29.84R
FAIRMONT       CLOUDY    64  61  88 NW6       29.80R
$$

...SOUTHWEST WISCONSIN...


CITY           SKY/WX    TMP DP  RH WIND       PRES   REMARKS
LA CROSSE      HVY RAIN  69  67  93 E6        29.76R FOG
PRAIRIE DU CHI DRIZZLE   69  67  91 S5        29.78R
BOSCOBEL       LGT RAIN  71  68  90 S5        29.77F
LONE ROCK      RAIN      75  70  83 S9        29.77F
PLATTEVILLE    CLOUDY    72  69  92 S12       29.81S
FORT MC COY    CLOUDY    67  66  96 E5        29.78S
CAMP DOUGLAS   DRIZZLE   68  68 100 E2        29.79F
VIROQUA        CLOUDY    67  67 100 E5        29.78F
WIS DELLS      RAIN      71  68  91 CALM      29.79F
$$

...ELSEWHERE IN WISCONSIN...


CITY           SKY/WX    TMP DP  RH WIND       PRES   REMARKS
MILWAUKEE      CLOUDY    73  69  87 S10       29.84F
MADISON        MOCLDY    73  67  81 S12       29.81S
GREEN BAY      FAIR      72  70  93 S5        29.80F FOG
EAU CLAIRE     NOT AVBL
BLACK RVR FLS  LGT RAIN  67  67 100 CALM      29.78R
MEDFORD        CLOUDY    63  63  99 CALM      29.81R
WAUSAU         RAIN      66  65  96 SE6       29.82R FOG
WIS RAPIDS     LGT RAIN  67  66  97 E6        29.81F
MARSHFIELD     RAIN      67  65  93 SE8       29.81R FOG
RICE LAKE      LGT RAIN  65  64  96 CALM      29.79F
$$

...NORTHEAST IOWA...


CITY           SKY/WX    TMP DP  RH WIND       PRES   REMARKS
WATERLOO       CLOUDY    68  66  93 S6        29.77S
DUBUQUE        CLOUDY    71  69  93 SW15      29.81R
DECORAH        CLOUDY    68  68 100 CALM      29.78S FOG
MASON CITY     CLOUDY    67  66  97 CALM      29.80R
CHARLES CITY   CLOUDY    68  66  94 S6        29.78S FOG
OELWEIN        CLOUDY    68  68 100 S5        29.80S FOG
$$

...ELSEWHERE IN IOWA...


CITY           SKY/WX    TMP DP  RH WIND       PRES   REMARKS
DES MOINES     CLOUDY    69  67  93 SW9       29.80F
IOWA CITY      FAIR      71  70  96 S6        29.81F
FORT DODGE     MOCLDY    66  64  94 W5        29.81R
MARSHALLTOWN   CLOUDY    68  67  96 SW10      29.78S
CEDAR RAPIDS   CLOUDY    70  70 100 S9        29.80S FOG
$$

...NORTHERN ILLINOIS...


CITY           SKY/WX    TMP DP  RH WIND       PRES   REMARKS
CHICAGO-OHARE  CLOUDY    75  67  76 S12       29.86S
DUPAGE         FAIR      74  70  87 S10       29.86F
CHICAGO-MIDWAY MOCLDY    78  69  73 S8        29.87F
MOLINE         FAIR      71  68  90 S10       29.83R
ROCKFORD       CLOUDY    71  67  87 S9        29.84F
STERLING       FAIR      72  66  83 CALM      29.84S
PEORIA         FAIR      74  69  85 SW9       29.87R
$$

NOTE: "FAIR" INDICATES FEW OR NO CLOUDS BELOW 12,000 FEET WITH NO
SIGNIFICANT WEATHER AND/OR OBSTRUCTIONS TO VISIBILITY. WIND
SPEEDS ARE IN MILES-PER-HOUR.



USA.gov is the U.S. government's official web portal to all federal, state and local government web resources and services.